126  
ASUS44 KSHV 181310  
RWRSHV  
 
THE FOUR STATE AREA WEATHER ROUNDUP  
NATIONAL WEATHER SERVICE SHREVEPORT LA  
800 AM CDT MON OCT 18 2021  
 
NOTE: "FAIR" INDICATES FEW OR NO CLOUDS BELOW 12000 FEET  
WITH NO SIGNIFICANT WEATHER AND/OR S TO VISIBILITY
.  
 
!LAZ001-LAZ014-TXZ097-181400  
SHREVEPORT...MONROE...TEXARKANA RADIOS  
 
CITY SKY/WX TMP DP RH WIND PRES REMARKS
 
SHREVEPORT PTCLDY 46 43 87 NE3 30.19S  
MONROE CLEAR 47 47 100 CALM 30.23R  
NATCHITOCHES CLEAR 43 43 100 CALM 30.20S  
TEXARKANA CLEAR 52 47 83 NE3 30.19S  

 
 
!LAZ001-LAZ014-TXZ097-181400  
OTHER LOCATIONS...  
 
CITY SKY/WX TMP DP RH WIND PRES REMARKS
 
DOWNTOWN SHV CLEAR 50 47 89 CALM 30.20R  
BOSSIER CITY CLEAR 48 45 90 CALM 30.19R  
RUSTON CLEAR 45 44 95 CALM 30.25R  
LITTLE ROCK PTCLDY 48 45 89 CALM 30.22R  
EL DORADO CLEAR 45 43 93 CALM 30.21S  
JACKSON N/A 46 42 86 CALM 30.22R  
NEW ORLEANS PTSUNNY 63 49 60 NE6 30.17R  
HOUSTON PTCLDY 52 49 89 CALM 30.16S  
LUFKIN CLEAR 50 48 93 CALM 30.18S  
TYLER CLEAR 49 45 86 CALM 30.17R  
DAL FT WORTH PTCLDY 52 43 71 CALM 30.14R  

 
 
!TXZ136-TXZ165-181400  
TYLER...LUFKIN RADIOS  
 
CITY SKY/WX TMP DP RH WIND PRES REMARKS
 
TYLER CLEAR 49 45 86 CALM 30.17R  
GILMER SUNNY N/A N/A N/A CALM 30.18S  
LONGVIEW CLEAR 47 45 93 CALM 30.17S  
LUFKIN CLEAR 50 48 93 CALM 30.18S  

 
 
!TXZ136-TXZ165-181400  
OTHER LOCATIONS...  
 
CITY SKY/WX TMP DP RH WIND PRES REMARKS
 
NACOGDOCHES CLEAR 45 44 97 CALM 30.19S  
BEAUMONT CLEAR 52 51 97 N5 30.17R  
HOUSTON PTCLDY 52 49 89 CALM 30.16S  
COLLEGE STN CLEAR 53 47 79 CALM 30.16R  
AUSTIN PTCLDY 45 44 97 CALM 30.16R  
DAL FT WORTH PTCLDY 52 43 71 CALM 30.14R  
TEXARKANA CLEAR 52 47 83 NE3 30.19S  
SHREVEPORT PTCLDY 46 43 87 NE3 30.19S  
FORT POLK CLEAR 50 45 83 NE3 30.18R  
LAKE CHARLES CLEAR 54 48 80 NE5 30.17S  

 
 
 
CLICK HERE TO GO TO PREVIOUS BULLETINS.

The Nexlab LA Page
The Nexlab TX Page
The Nexlab AR Page
The Nexlab OK Page Main Text Page